CAPE
0 0 0 0 0 0 2 1 0 15 0 0 0 0 4 0 79 97 110 145 579 922 1001 1088 1247 1195 1147 1241 1409 1543 1506 1483
0 0 0 0 0 0 0 0 0 0 0 0 0 0 0 8 32 101 239 202 411 731 938 1137 1220 1422 1434 1376 1597 1667 1640 1619
0 0 0 0 0 0 0 0 0 0 0 0 0 0 0 0 15 168 349 415 576 825 946 1130 1285 1262 1189 1438 1671 1756 1539 1551
0 0 0 0 0 0 0 0 0 0 7 0 0 0 0 0 1 298 613 566 612 926 1051 1301 1505 1534 1546 1779 1748 1646 1681 1756
0 0 0 0 0 0 0 0 0 0 0 0 0 0 0 0 0 136 808 890 681 930 1243 1787 1838 1842 2063 2257 2071 1961 1929 1873
0 0 0 0 0 0 0 0 0 0 0 0 0 0 0 0 0 124 473 1364 944 1033 1479 1949 2172 2387 2607 2411 2190 2046 1985 1860
0 0 0 0 0 0 0 0 0 0 0 0 0 0 0 0 0 7 217 1207 1480 1432 1650 2100 2663 2966 2691 2333 2407 2128 1909 1697
0 0 0 0 0 0 0 0 0 0 0 0 2 565 361 168 83 1 44 626 1557 1966 1859 2143 2831 3014 2745 2457 2490 2215 1955 1745
0 0 0 0 0 0 0 0 0 0 0 3 251 719 885 1215 1109 732 226 234 899 1932 2202 2321 2795 3016 2756 2496 2393 2136 1930 1811
0 0 0 0 0 0 0 0 0 0 0 398 739 727 1771 2052 2015 1882 1667 1155 240 1353 2136 2482 2768 2903 2758 2482 2375 2154 1878 1907
0 0 0 0 0 0 0 0 0 0 185 597 1017 611 1220 1616 1936 1975 1793 830 454 1131 1997 2545 2765 2915 2848 2543 2493 2290 2031 1819
33 0 0 0 0 20 6 0 379 439 551 933 731 15 1448 1546 1201 1338 1786 1674 539 555 1352 2151 2715 2890 2899 2697 2525 2346 2138 1922
75 0 0 148 550 560 92 124 801 946 1338 1454 907 1500 1750 1350 1051 1047 691 1396 1538 912 1034 1430 2147 2613 2898 2818 2580 2479 2343 2212
7 11 7 299 498 426 685 1111 1170 1427 1418 1450 1411 1221 1049 1076 864 995 955 816 1390 1675 1709 1554 1755 2253 2669 2811 2720 2658 2600 2547
684 580 840 651 1095 1237 1033 929 930 998 767 717 659 711 687 682 898 1004 1144 1059 1041 1423 1836 1809 1870 1990 2346 2544 2410 2484 2503 2527
763 836 884 998 1043 1111 1004 928 709 677 687 480 487 346 263 225 226 357 515 1018 1037 849 1167 607 251 513 1721 1925 1846 1777 1513 1451
703 734 596 601 762 710 651 565 556 493 428 357 216 149 103 165 327 263 130 222 801 769 1234 1086 967 933 589 716 1148 1223 711 219
678 773 804 951 765 649 582 404 312 267 273 148 190 506 627 633 505 396 393 426 277 267 334 449 789 828 742 622 111 31 123 288
632 553 808 908 798 504 446 398 434 383 355 532 546 654 661 529 482 222 553 430 314 306 205 217 352 396 588 542 473 268 427 653
CIN
-0 -0 -0 -0 -0 -0 -6 -1 -0 -5 -0 -0 -0 -0 -87 -0 -47 -57 -62 -66 -76 -81 -129 -168 -195 -224 -232 -193 -162 -111 -73 -53
-0 -0 -0 -0 -0 -0 -0 -0 -0 -0 -0 -0 -0 -0 -0 -37 -35 -33 -52 -86 -91 -105 -145 -179 -201 -217 -230 -201 -141 -99 -61 -49
-0 -0 -0 -0 -0 -0 -0 -0 -0 -0 -0 -0 -0 -0 -0 -0 -91 -25 -49 -96 -114 -127 -154 -184 -186 -195 -222 -209 -141 -89 -82 -63
-0 -0 -0 -0 -0 -0 -0 -0 -0 -0 -3 -0 -0 -0 -0 -0 -46 -23 -91 -101 -133 -139 -171 -184 -201 -186 -210 -185 -137 -107 -72 -56
-0 -0 -0 -0 -0 -0 -0 -0 -0 -0 -0 -0 -0 -0 -0 -0 -0 -58 -97 -117 -126 -142 -199 -187 -201 -213 -189 -149 -113 -81 -71 -57
-0 -0 -0 -0 -0 -0 -0 -0 -0 -0 -0 -0 -0 -0 -0 -0 -0 -82 -70 -109 -128 -128 -149 -165 -184 -180 -146 -137 -111 -82 -70 -65
-0 -0 -0 -0 -0 -0 -0 -0 -0 -0 -0 -0 -0 -0 -0 -0 -16 -30 -64 -69 -98 -132 -168 -188 -168 -143 -159 -156 -119 -124 -127 -116
-0 -0 -0 -0 -0 -0 -0 -0 -0 -0 -0 -0 -29 -48 -51 -72 -119 -2 -87 -64 -97 -134 -171 -184 -165 -143 -153 -163 -145 -146 -142 -125
-0 -0 -0 -0 -0 -0 -0 -0 -0 -0 -0 -18 -35 -43 -92 -105 -117 -140 -168 -154 -100 -130 -144 -161 -160 -136 -136 -155 -159 -161 -173 -154
-0 -0 -0 -0 -0 -0 -0 -0 -0 -0 -0 -32 -61 -102 -122 -159 -142 -160 -184 -218 -224 -139 -143 -154 -150 -126 -139 -153 -158 -171 -185 -130
-0 -0 -0 -0 -0 -0 -0 -0 -0 -0 -37 -33 -62 -86 -106 -216 -222 -231 -249 -304 -292 -187 -151 -151 -151 -124 -125 -142 -133 -156 -186 -173
-4 -0 -0 -0 -1 -5 -3 -0 -26 -44 -37 -40 -64 -21 -58 -210 -298 -290 -273 -306 -367 -317 -226 -163 -152 -125 -102 -111 -114 -125 -124 -155
-20 -5 -2 -26 -43 -81 -26 -5 -41 -51 -64 -66 -34 -86 -158 -209 -258 -293 -360 -286 -265 -306 -257 -210 -202 -131 -93 -65 -83 -80 -96 -84
-27 -15 -5 -82 -131 -37 -71 -88 -94 -106 -116 -126 -123 -152 -185 -209 -247 -244 -236 -268 -208 -172 -176 -223 -209 -144 -79 -46 -35 -33 -37 -22
-17 -13 -104 -124 -116 -154 -127 -147 -165 -146 -194 -190 -176 -164 -193 -215 -208 -204 -196 -215 -238 -186 -164 -172 -165 -134 -77 -51 -62 -28 -16 -20
-27 -57 -104 -131 -158 -156 -146 -153 -188 -197 -198 -224 -189 -219 -227 -241 -259 -250 -250 -195 -211 -255 -202 -316 -442 -357 -111 -68 -60 -73 -96 -68
-18 -37 -80 -111 -131 -162 -191 -201 -183 -200 -210 -229 -260 -255 -275 -265 -263 -273 -319 -295 -182 -189 -100 -117 -140 -147 -223 -192 -99 -85 -152 -265
-2 -32 -46 -56 -108 -164 -157 -201 -226 -219 -238 -285 -248 -189 -190 -174 -240 -281 -262 -216 -241 -231 -179 -136 -46 -56 -81 -108 -281 -348 -269 -167
-34 -104 -57 -73 -95 -118 -122 -165 -161 -147 -153 -127 -151 -119 -129 -153 -162 -260 -137 -144 -162 -154 -195 -159 -69 -62 -31 -42 -41 -52 -16 -2
Wind_Speed
21 21 26 18 19 30 35 18 25 19 19 27 25 22 18 18 16 12 13 8 7 9 10 10 9 9 10 9 8 9 10 10
24 27 26 30 22 18 22 18 16 28 23 24 20 22 19 16 18 13 12 10 8 8 9 9 9 9 10 9 8 9 10 7
23 27 25 24 29 21 27 15 30 25 24 24 23 26 21 18 17 15 13 12 10 8 9 9 10 10 10 9 9 9 10 8
29 26 31 31 28 23 30 19 30 32 26 14 23 23 23 25 21 17 16 15 12 10 10 10 10 10 10 9 9 9 10 9
36 28 27 35 32 34 32 41 38 30 30 17 19 24 27 26 25 20 17 14 10 11 12 12 11 10 10 10 10 10 10 10
36 39 28 31 33 33 37 40 35 36 31 24 22 25 29 28 24 21 15 10 8 10 13 12 12 11 10 10 10 10 10 10
39 38 27 29 33 32 39 42 42 34 33 32 31 26 26 27 26 25 13 8 7 7 9 10 12 11 11 10 10 10 10 10
39 39 39 36 33 30 34 37 41 39 36 31 22 25 25 23 22 24 20 8 6 6 8 10 11 12 10 10 9 10 10 10
39 37 38 45 41 36 28 27 31 34 31 18 20 21 21 21 21 21 21 19 8 2 5 8 11 11 11 10 11 10 11 11
40 37 42 40 33 34 29 25 23 25 21 21 21 19 17 19 21 22 22 21 18 4 1 5 9 10 10 10 10 9 8 10
36 36 34 27 27 27 29 29 21 22 21 20 20 16 17 19 20 21 23 23 19 12 3 2 6 8 8 8 8 9 10 8
30 39 41 36 23 23 24 33 15 16 17 18 17 20 15 18 21 21 22 22 20 14 8 4 3 6 7 6 7 7 7 7
33 33 34 19 16 15 25 21 10 12 14 16 19 19 17 19 20 21 22 23 21 17 14 11 9 5 7 7 7 4 5 4
28 31 34 16 16 23 16 10 8 9 12 13 15 16 18 19 20 22 23 23 22 19 18 16 13 10 8 9 8 8 7 5
16 21 18 10 17 15 13 11 12 12 13 14 14 15 17 19 20 21 23 23 22 21 19 18 16 14 12 12 11 10 11 9
22 17 14 15 13 11 12 12 13 14 15 16 18 19 20 21 22 23 24 24 23 22 19 18 17 18 16 13 12 12 13 15
28 24 18 16 14 13 14 15 16 16 17 18 20 21 23 24 25 25 26 24 23 24 23 21 20 19 19 18 16 17 17 19
24 20 22 18 17 16 15 15 16 18 19 20 21 22 22 23 23 23 23 22 21 21 21 20 17 18 18 16 14 17 21 25
25 21 19 14 13 14 14 15 17 19 20 19 20 20 19 18 18 19 19 19 19 20 20 19 17 17 18 17 14 17 20 21
Wind_Direction
258 258 254 253 207 192 221 290 277 282 278 247 225 240 286 285 316 140 155 94 88 113 121 112 111 120 132 131 134 143 152 156
257 255 255 253 257 246 257 275 284 262 270 258 264 261 281 285 290 326 354 40 67 83 107 99 92 95 107 115 112 127 135 132
255 249 247 249 254 247 250 218 260 271 274 261 261 253 277 297 311 328 351 17 47 39 82 90 86 87 91 93 97 114 127 119
257 259 250 252 247 247 250 260 256 258 266 299 273 266 273 274 287 321 330 355 25 65 95 101 90 82 78 75 85 99 109 104
250 252 255 248 248 249 253 240 247 262 262 285 286 271 259 273 275 300 320 344 25 85 112 111 103 93 80 74 81 88 93 104
247 248 251 250 249 248 247 246 251 249 261 274 281 275 262 262 277 294 319 356 48 84 120 112 103 94 79 63 75 81 88 95
247 248 254 252 248 249 245 243 245 254 260 267 268 274 272 273 276 277 324 3 34 77 105 106 114 99 91 76 80 90 94 99
247 248 249 250 252 252 252 250 250 253 259 269 283 282 285 295 289 284 298 327 8 70 119 132 130 127 102 92 90 101 102 99
247 247 248 246 245 250 256 255 256 257 264 276 278 285 292 294 295 302 299 299 323 77 128 140 143 134 122 108 103 105 112 116
246 247 244 248 253 250 253 261 263 264 275 277 278 289 305 312 304 304 310 306 304 318 352 146 151 148 136 125 118 113 111 124
245 247 250 254 252 250 250 256 265 265 274 279 283 290 296 310 318 321 316 309 309 310 321 159 163 161 154 145 133 135 135 136
250 245 246 250 260 257 257 255 256 265 276 284 289 284 297 308 311 316 322 323 322 325 321 308 224 191 182 180 170 164 151 147
245 249 252 267 260 258 246 261 245 267 282 288 285 293 307 312 316 321 324 328 334 334 328 320 307 252 225 211 213 215 183 176
247 248 251 269 259 250 265 265 276 287 293 297 304 306 309 312 315 319 319 324 331 334 337 334 321 303 281 259 268 272 267 253
249 258 276 264 273 270 276 273 279 287 296 301 306 310 314 315 319 321 322 323 326 329 333 334 333 326 306 297 287 284 281 266
271 274 280 271 282 279 282 287 290 293 296 300 301 306 307 310 313 315 319 321 324 324 327 329 330 325 322 318 301 285 283 288
262 271 279 277 281 283 286 290 294 298 299 301 302 303 306 307 309 311 312 315 320 321 322 322 324 322 313 307 302 294 291 292
268 278 274 281 281 285 293 298 299 298 299 302 304 305 309 311 316 320 319 319 319 322 324 330 337 335 331 324 314 303 298 295
270 278 281 286 291 296 303 305 306 303 302 305 309 310 313 316 322 331 336 336 334 330 331 333 341 343 338 339 338 325 311 305